Simultaneous Nadir Overpasses (SNOs) Predictions

Prediction of SNOs between GOES-16 and FY3D Satellite Orbit:

Table of predicted SNOs for the next 14.0 days since TLE Epoch: 8/3/2024
Index Date Time (GOES-16) GOES-16 Lat,Lon FY3D Lat,Lon Distance(km) Time Diff (sec)
1 08/03/2024 19:37:37 -0.05, -75.20 -0.20, -75.82 70.67 80
2 08/04/2024 19:21:42 -0.05, -75.21 0.83, -71.32 443.65 80
3 08/06/2024 07:43:44 0.05, -75.22 0.37, -76.61 159.02 80
4 08/07/2024 07:22:30 0.05, -75.23 -0.67, -72.11 355.90 80
5 08/08/2024 19:44:40 -0.04, -75.25 -0.57, -77.43 249.27 80
6 08/09/2024 19:28:46 -0.04, -75.26 0.48, -72.93 266.12 80
7 08/11/2024 07:50:48 0.04, -75.28 0.71, -78.22 335.24 80
8 08/12/2024 07:29:34 0.04, -75.30 -0.34, -73.72 180.28 80
9 08/13/2024 19:51:44 -0.03, -75.32 -0.88, -79.04 424.44 80
10 08/14/2024 19:35:49 -0.03, -75.34 0.17, -74.54 91.12 80
